Time,TemperatureF,DewpointF,PressureIn,WindDirection,WindDirectionDegrees,WindSpeedMPH,WindSpeedGustMPH,Humidity,HourlyPrecipIn,Conditions,Clouds,dailyrainin,SolarRadiationWatts/m^2,SoftwareType,DateUTC
2013-04-28 00:01:00,46.9,43.9,30.32,SSE,152,0.0,2.0,89,0.00,,,0.00,0.0,meteohub,2013-04-28 04:01:00,
2013-04-28 00:02:00,46.9,43.5,30.32,SSE,152,0.0,2.0,88,0.00,,,0.00,0.0,meteohub,2013-04-28 04:02:00,
2013-04-28 00:07:00,46.8,43.7,30.32,SSE,152,0.0,2.0,89,0.00,,,0.00,0.0,meteohub,2013-04-28 04:07:00,
2013-04-28 00:13:00,46.4,43.3,30.32,SSE,152,0.0,2.0,89,0.00,,,0.00,0.0,meteohub,2013-04-28 04:13:00,
2013-04-28 00:18:00,46.4,43.3,30.32,SSE,152,0.0,1.0,89,0.00,,,0.00,0.0,meteohub,2013-04-28 04:18:00,
2013-04-28 00:23:00,46.6,43.5,30.32,SSE,152,0.0,2.0,89,0.00,,,0.00,0.0,meteohub,2013-04-28 04:23:00,
2013-04-28 00:28:00,46.6,43.5,30.32,SSE,152,0.0,2.0,89,0.00,,,0.00,0.0,meteohub,2013-04-28 04:28:00,
2013-04-28 00:33:00,46.4,43.3,30.32,SSE,152,0.0,2.0,89,0.00,,,0.00,0.0,meteohub,2013-04-28 04:33:00,
2013-04-28 00:38:00,46.0,43.3,30.32,SSE,152,0.0,0.0,90,0.00,,,0.00,0.0,meteohub,2013-04-28 04:38:00,
2013-04-28 00:43:00,46.0,43.0,30.32,SSE,152,0.0,0.0,89,0.00,,,0.00,0.0,meteohub,2013-04-28 04:43:00,
2013-04-28 00:48:00,46.0,43.3,30.32,SSE,152,0.0,1.0,90,0.00,,,0.00,0.0,meteohub,2013-04-28 04:48:00,
2013-04-28 00:53:00,45.9,43.2,30.32,SSE,152,0.0,1.0,90,0.00,,,0.00,0.0,meteohub,2013-04-28 04:53:00,
2013-04-28 00:59:00,45.3,42.6,30.32,SSE,152,0.0,1.0,90,0.00,,,0.00,0.0,meteohub,2013-04-28 04:59:00,
2013-04-28 01:04:00,45.3,42.6,30.32,SSE,152,0.0,0.0,90,0.00,,,0.00,0.0,meteohub,2013-04-28 05:04:00,
2013-04-28 01:09:00,45.3,42.6,30.32,SSE,152,0.0,0.0,90,0.00,,,0.00,0.0,meteohub,2013-04-28 05:09:00,
2013-04-28 01:14:00,45.3,42.8,30.32,SSE,152,0.0,0.0,91,0.00,,,0.00,0.0,meteohub,2013-04-28 05:14:00,
2013-04-28 01:19:00,45.1,42.4,30.32,SSE,152,0.0,1.0,90,0.00,,,0.00,0.0,meteohub,2013-04-28 05:19:00,
2013-04-28 01:24:00,45.0,42.3,30.31,SSE,152,0.0,1.0,90,0.00,,,0.00,0.0,meteohub,2013-04-28 05:24:00,
2013-04-28 01:29:00,44.8,42.3,30.31,SSE,152,0.0,1.0,91,0.00,,,0.00,0.0,meteohub,2013-04-28 05:29:00,
2013-04-28 01:34:00,44.8,42.3,30.31,SSE,152,0.0,1.0,91,0.00,,,0.00,0.0,meteohub,2013-04-28 05:34:00,
2013-04-28 01:39:00,44.8,42.3,30.31,SSE,152,0.0,1.0,91,0.00,,,0.00,0.0,meteohub,2013-04-28 05:39:00,
2013-04-28 01:45:00,44.4,41.9,30.31,SSE,152,0.0,0.0,91,0.00,,,0.00,0.0,meteohub,2013-04-28 05:45:00,
2013-04-28 01:50:00,44.2,41.7,30.31,SSE,152,0.0,2.0,91,0.00,,,0.00,0.0,meteohub,2013-04-28 05:50:00,
2013-04-28 01:55:00,43.9,41.4,30.31,SSE,152,0.0,2.0,91,0.00,,,0.00,0.0,meteohub,2013-04-28 05:55:00,
2013-04-28 02:00:00,43.7,41.2,30.31,SSE,152,0.0,2.0,91,0.00,,,0.00,0.0,meteohub,2013-04-28 06:00:00,
2013-04-28 02:05:00,43.9,41.7,30.31,SSE,152,0.0,1.0,92,0.00,,,0.00,0.0,meteohub,2013-04-28 06:05:00,
2013-04-28 02:10:00,43.9,41.4,30.30,SSE,152,0.0,0.0,91,0.00,,,0.00,0.0,meteohub,2013-04-28 06:10:00,
2013-04-28 02:15:00,43.2,40.6,30.30,SSE,152,1.0,1.0,91,0.00,,,0.00,0.0,meteohub,2013-04-28 06:15:00,
2013-04-28 02:20:00,43.3,41.2,30.30,SSE,152,0.0,4.0,92,0.00,,,0.00,0.0,meteohub,2013-04-28 06:20:00,
2013-04-28 02:25:00,43.9,41.7,30.30,SSE,152,0.0,4.0,92,0.00,,,0.00,0.0,meteohub,2013-04-28 06:25:00,
2013-04-28 02:31:00,43.3,41.2,30.30,SSE,152,0.0,2.0,92,0.00,,,0.00,0.0,meteohub,2013-04-28 06:31:00,
2013-04-28 02:36:00,43.5,41.4,30.30,SSE,152,0.0,2.0,92,0.00,,,0.00,0.0,meteohub,2013-04-28 06:36:00,
2013-04-28 02:41:00,43.7,41.5,30.30,SSE,152,2.0,2.0,92,0.00,,,0.00,0.0,meteohub,2013-04-28 06:41:00,
2013-04-28 02:46:00,44.1,42.1,30.30,SSE,152,0.0,4.0,93,0.00,,,0.00,0.0,meteohub,2013-04-28 06:46:00,
2013-04-28 02:51:00,44.1,42.1,30.30,SSE,152,0.0,4.0,93,0.00,,,0.00,0.0,meteohub,2013-04-28 06:51:00,
2013-04-28 02:56:00,44.1,42.1,30.30,SSE,152,0.0,4.0,93,0.00,,,0.00,0.0,meteohub,2013-04-28 06:56:00,
2013-04-28 03:01:00,44.1,42.1,30.30,SSE,151,0.0,4.0,93,0.00,,,0.00,0.0,meteohub,2013-04-28 07:01:00,
2013-04-28 03:06:00,43.9,41.9,30.30,SSE,152,0.0,4.0,93,0.00,,,0.00,0.0,meteohub,2013-04-28 07:06:00,
2013-04-28 03:12:00,43.9,41.9,30.30,SSE,152,0.0,1.0,93,0.00,,,0.00,0.0,meteohub,2013-04-28 07:12:00,
2013-04-28 03:17:00,43.9,41.9,30.30,SSE,151,4.0,4.0,93,0.00,,,0.00,0.0,meteohub,2013-04-28 07:17:00,
2013-04-28 03:22:00,43.5,41.7,30.29,SSE,150,4.0,4.0,93,0.00,,,0.00,0.0,meteohub,2013-04-28 07:22:00,
2013-04-28 03:27:00,43.3,41.7,30.30,ENE,70,2.0,4.0,94,0.00,,,0.00,0.0,meteohub,2013-04-28 07:27:00,
2013-04-28 03:32:00,43.2,41.5,30.29,ENE,70,1.0,4.0,94,0.00,,,0.00,0.0,meteohub,2013-04-28 07:32:00,
2013-04-28 03:37:00,43.0,41.4,30.29,NE,44,1.0,4.0,94,0.00,,,0.00,0.0,meteohub,2013-04-28 07:37:00,
2013-04-28 03:42:00,42.8,41.2,30.29,NE,44,0.0,3.0,94,0.00,,,0.00,0.0,meteohub,2013-04-28 07:42:00,
2013-04-28 03:47:00,42.6,41.0,30.29,NE,44,0.0,3.0,94,0.00,,,0.00,0.0,meteohub,2013-04-28 07:47:00,
2013-04-28 03:52:00,42.4,40.8,30.29,NE,44,1.0,3.0,94,0.00,,,0.00,0.0,meteohub,2013-04-28 07:52:00,
2013-04-28 03:57:00,42.4,40.8,30.29,NE,44,1.0,3.0,94,0.00,,,0.00,0.0,meteohub,2013-04-28 07:57:00,
2013-04-28 04:02:00,42.4,40.8,30.29,NE,44,2.0,4.0,94,0.00,,,0.00,0.0,meteohub,2013-04-28 08:02:00,
2013-04-28 04:07:00,42.3,40.6,30.29,NE,44,2.0,4.0,94,0.00,,,0.00,0.0,meteohub,2013-04-28 08:07:00,
2013-04-28 04:12:00,42.1,40.5,30.29,NE,44,0.0,4.0,94,0.00,,,0.00,0.0,meteohub,2013-04-28 08:12:00,
2013-04-28 04:17:00,42.1,40.5,30.29,NE,44,0.0,4.0,94,0.00,,,0.00,0.0,meteohub,2013-04-28 08:17:00,
2013-04-28 04:22:00,42.1,40.5,30.29,NE,44,0.0,3.0,94,0.00,,,0.00,0.0,meteohub,2013-04-28 08:22:00,
2013-04-28 04:27:00,41.7,40.1,30.29,NE,44,0.0,2.0,94,0.00,,,0.00,0.0,meteohub,2013-04-28 08:27:00,
2013-04-28 04:32:00,41.7,40.1,30.29,NE,44,0.0,1.0,94,0.00,,,0.00,0.0,meteohub,2013-04-28 08:32:00,
2013-04-28 04:37:00,41.4,39.7,30.29,NE,44,0.0,3.0,94,0.00,,,0.00,0.0,meteohub,2013-04-28 08:37:00,
2013-04-28 04:43:00,41.2,39.6,30.29,NE,44,0.0,3.0,94,0.00,,,0.00,0.0,meteohub,2013-04-28 08:43:00,
2013-04-28 04:48:00,41.0,39.4,30.29,NE,44,0.0,3.0,94,0.00,,,0.00,0.0,meteohub,2013-04-28 08:48:00,
2013-04-28 04:53:00,40.8,39.2,30.29,NE,44,0.0,1.0,94,0.00,,,0.00,0.0,meteohub,2013-04-28 08:53:00,
2013-04-28 04:58:00,40.8,39.2,30.29,NE,44,0.0,1.0,94,0.00,,,0.00,0.0,meteohub,2013-04-28 08:58:00,
2013-04-28 05:03:00,40.8,39.6,30.29,NE,44,0.0,1.0,95,0.00,,,0.00,0.0,meteohub,2013-04-28 09:03:00,
2013-04-28 05:08:00,40.6,39.4,30.29,NE,44,0.0,1.0,95,0.00,,,0.00,0.0,meteohub,2013-04-28 09:08:00,
2013-04-28 05:13:00,40.6,39.4,30.29,NE,44,0.0,1.0,95,0.00,,,0.00,0.0,meteohub,2013-04-28 09:13:00,
2013-04-28 05:18:00,40.6,39.0,30.29,NE,44,0.0,1.0,94,0.00,,,0.00,0.0,meteohub,2013-04-28 09:18:00,
2013-04-28 05:24:00,40.5,39.2,30.29,NE,44,0.0,1.0,95,0.00,,,0.00,0.0,meteohub,2013-04-28 09:24:00,
2013-04-28 05:29:00,40.5,39.2,30.29,NE,44,0.0,1.0,95,0.00,,,0.00,0.0,meteohub,2013-04-28 09:29:00,
2013-04-28 05:34:00,40.1,38.8,30.29,NE,44,0.0,0.0,95,0.00,,,0.00,0.0,meteohub,2013-04-28 09:34:00,
2013-04-28 05:39:00,39.9,38.7,30.29,NE,44,0.0,0.0,95,0.00,,,0.00,0.0,meteohub,2013-04-28 09:39:00,
2013-04-28 05:44:00,39.9,38.7,30.29,NE,44,0.0,0.0,95,0.00,,,0.00,0.0,meteohub,2013-04-28 09:44:00,
2013-04-28 05:49:00,39.7,38.5,30.29,NE,44,0.0,0.0,95,0.00,,,0.00,0.0,meteohub,2013-04-28 09:49:00,
2013-04-28 05:54:00,39.6,37.9,30.29,NE,44,0.0,0.0,94,0.00,,,0.00,0.0,meteohub,2013-04-28 09:54:00,
2013-04-28 05:59:00,39.4,38.1,30.29,NE,44,0.0,0.0,95,0.00,,,0.00,7.0,meteohub,2013-04-28 09:59:00,
2013-04-28 06:04:00,39.2,37.9,30.29,NE,44,1.0,0.0,95,0.00,,,0.00,11.0,meteohub,2013-04-28 10:04:00,
2013-04-28 06:10:00,39.2,37.9,30.29,NE,44,0.0,2.0,95,0.00,,,0.00,11.0,meteohub,2013-04-28 10:10:00,
2013-04-28 06:15:00,39.2,37.9,30.29,NE,44,0.0,2.0,95,0.00,,,0.00,14.0,meteohub,2013-04-28 10:15:00,
2013-04-28 06:20:00,39.4,38.1,30.29,NE,44,0.0,3.0,95,0.00,,,0.00,19.0,meteohub,2013-04-28 10:20:00,
2013-04-28 06:25:00,39.6,38.3,30.29,NE,44,0.0,3.0,95,0.00,,,0.00,23.0,meteohub,2013-04-28 10:25:00,
2013-04-28 06:30:00,39.7,38.5,30.29,NE,44,0.0,3.0,95,0.00,,,0.00,19.0,meteohub,2013-04-28 10:30:00,
2013-04-28 06:35:00,40.3,39.0,30.29,NE,44,0.0,2.0,95,0.00,,,0.00,35.0,meteohub,2013-04-28 10:35:00,
2013-04-28 06:40:00,40.5,39.2,30.30,NE,44,0.0,1.0,95,0.00,,,0.00,28.0,meteohub,2013-04-28 10:40:00,
2013-04-28 06:45:00,40.6,39.4,30.30,NE,44,0.0,1.0,95,0.00,,,0.00,30.0,meteohub,2013-04-28 10:45:00,
2013-04-28 06:51:00,40.8,39.6,30.30,NE,44,0.0,1.0,95,0.00,,,0.00,39.0,meteohub,2013-04-28 10:51:00,
2013-04-28 06:56:00,41.2,39.9,30.30,NE,44,0.0,1.0,95,0.00,,,0.00,44.0,meteohub,2013-04-28 10:56:00,
2013-04-28 07:01:00,41.5,40.3,30.30,NE,44,0.0,1.0,95,0.00,,,0.00,51.0,meteohub,2013-04-28 11:01:00,
2013-04-28 07:06:00,41.7,40.5,30.31,NE,44,2.0,2.0,95,0.00,,,0.00,63.0,meteohub,2013-04-28 11:06:00,
2013-04-28 07:11:00,42.1,40.8,30.31,NE,44,0.0,3.0,95,0.00,,,0.00,63.0,meteohub,2013-04-28 11:11:00,
2013-04-28 07:16:00,42.1,40.8,30.31,NE,44,1.0,3.0,95,0.00,,,0.00,97.0,meteohub,2013-04-28 11:16:00,
2013-04-28 07:21:00,42.3,41.0,30.31,NE,44,0.0,3.0,95,0.00,,,0.00,76.0,meteohub,2013-04-28 11:21:00,
2013-04-28 07:26:00,42.4,41.2,30.31,NE,44,0.0,3.0,95,0.00,,,0.00,56.0,meteohub,2013-04-28 11:26:00,
2013-04-28 07:31:00,42.4,41.2,30.32,NE,44,0.0,3.0,95,0.00,,,0.00,49.0,meteohub,2013-04-28 11:31:00,
2013-04-28 07:37:00,42.6,41.4,30.32,NE,44,0.0,2.0,95,0.00,,,0.00,60.0,meteohub,2013-04-28 11:37:00,
2013-04-28 07:42:00,42.6,41.4,30.32,NE,44,0.0,2.0,95,0.00,,,0.00,56.0,meteohub,2013-04-28 11:42:00,
2013-04-28 07:47:00,42.8,41.5,30.32,NE,44,0.0,2.0,95,0.00,,,0.00,165.0,meteohub,2013-04-28 11:47:00,
2013-04-28 07:52:00,43.5,42.3,30.32,NE,44,0.0,2.0,95,0.00,,,0.00,120.0,meteohub,2013-04-28 11:52:00,
2013-04-28 07:57:00,43.9,42.6,30.32,NE,44,0.0,1.0,95,0.00,,,0.00,114.0,meteohub,2013-04-28 11:57:00,
2013-04-28 08:02:00,44.2,43.0,30.32,NE,44,0.0,1.0,95,0.00,,,0.00,156.0,meteohub,2013-04-28 12:02:00,
2013-04-28 08:07:00,44.2,43.0,30.32,NE,44,2.0,2.0,95,0.00,,,0.00,171.0,meteohub,2013-04-28 12:07:00,
2013-04-28 08:12:00,44.2,43.0,30.32,NE,44,0.0,2.0,95,0.00,,,0.00,221.0,meteohub,2013-04-28 12:12:00,
2013-04-28 08:17:00,44.8,43.2,30.32,NE,44,0.0,2.0,94,0.00,,,0.00,258.0,meteohub,2013-04-28 12:17:00,
2013-04-28 08:22:00,45.0,43.7,30.32,NE,44,0.0,2.0,95,0.00,,,0.00,279.0,meteohub,2013-04-28 12:22:00,
2013-04-28 08:27:00,46.0,44.6,30.32,East,101,2.0,2.0,95,0.00,,,0.00,417.0,meteohub,2013-04-28 12:27:00,
2013-04-28 08:32:00,46.2,44.2,30.32,SSE,155,1.0,2.0,93,0.00,,,0.00,417.0,meteohub,2013-04-28 12:32:00,
2013-04-28 08:37:00,46.8,44.6,30.32,SSE,160,0.0,5.0,92,0.00,,,0.00,424.0,meteohub,2013-04-28 12:37:00,
2013-04-28 08:42:00,48.4,46.2,30.32,SSE,155,0.0,5.0,92,0.00,,,0.00,448.0,meteohub,2013-04-28 12:42:00,
2013-04-28 08:47:00,47.8,44.4,30.32,SSE,159,1.0,5.0,88,0.00,,,0.00,464.0,meteohub,2013-04-28 12:47:00,
2013-04-28 08:52:00,48.4,45.0,30.32,SE,141,1.0,5.0,88,0.00,,,0.00,478.0,meteohub,2013-04-28 12:52:00,
2013-04-28 08:57:00,49.1,45.3,30.32,ESE,123,0.0,5.0,87,0.00,,,0.00,492.0,meteohub,2013-04-28 12:57:00,
2013-04-28 09:02:00,50.7,46.4,30.32,ESE,107,4.0,5.0,85,0.00,,,0.00,508.0,meteohub,2013-04-28 13:02:00,
2013-04-28 09:07:00,51.8,46.2,30.32,ESE,109,1.0,5.0,81,0.00,,,0.00,522.0,meteohub,2013-04-28 13:07:00,
2013-04-28 09:12:00,51.6,45.7,30.32,SE,138,0.0,5.0,80,0.00,,,0.00,538.0,meteohub,2013-04-28 13:12:00,
2013-04-28 09:17:00,52.2,45.5,30.32,ESE,113,1.0,6.0,78,0.00,,,0.00,554.0,meteohub,2013-04-28 13:17:00,
2013-04-28 09:22:00,52.5,44.8,30.32,SSE,157,2.0,6.0,75,0.00,,,0.00,563.0,meteohub,2013-04-28 13:22:00,
2013-04-28 09:27:00,53.2,44.8,30.33,ESE,123,4.0,6.0,73,0.00,,,0.00,577.0,meteohub,2013-04-28 13:27:00,
2013-04-28 09:32:00,54.0,45.5,30.33,SSE,165,4.0,7.0,73,0.00,,,0.00,589.0,meteohub,2013-04-28 13:32:00,
2013-04-28 09:37:00,54.1,44.6,30.33,SSW,194,3.0,7.0,70,0.00,,,0.00,603.0,meteohub,2013-04-28 13:37:00,
2013-04-28 09:42:00,54.1,44.6,30.32,South,182,1.0,7.0,70,0.00,,,0.00,615.0,meteohub,2013-04-28 13:42:00,
2013-04-28 09:47:00,54.1,43.9,30.32,SSE,166,1.0,8.0,68,0.00,,,0.00,631.0,meteohub,2013-04-28 13:47:00,
2013-04-28 09:52:00,54.5,44.6,30.32,SE,136,5.0,8.0,69,0.00,,,0.00,645.0,meteohub,2013-04-28 13:52:00,
2013-04-28 09:57:00,54.5,43.7,30.32,South,174,2.0,8.0,67,0.00,,,0.00,654.0,meteohub,2013-04-28 13:57:00,
2013-04-28 10:02:00,55.0,45.5,30.32,SSE,156,2.0,8.0,70,0.00,,,0.00,664.0,meteohub,2013-04-28 14:02:00,
2013-04-28 10:07:00,54.3,43.5,30.32,SE,135,6.0,8.0,67,0.00,,,0.00,679.0,meteohub,2013-04-28 14:07:00,
2013-04-28 10:12:00,54.9,45.7,30.32,SSE,161,5.0,9.0,71,0.00,,,0.00,691.0,meteohub,2013-04-28 14:12:00,
2013-04-28 10:17:00,54.7,45.5,30.32,SSW,201,5.0,9.0,71,0.00,,,0.00,703.0,meteohub,2013-04-28 14:17:00,
2013-04-28 10:22:00,55.0,44.6,30.32,South,185,4.0,9.0,68,0.00,,,0.00,715.0,meteohub,2013-04-28 14:22:00,
2013-04-28 10:27:00,54.9,44.1,30.32,SSE,163,6.0,9.0,67,0.00,,,0.00,722.0,meteohub,2013-04-28 14:27:00,
2013-04-28 10:32:00,54.0,44.4,30.32,South,182,7.0,11.0,70,0.00,,,0.00,731.0,meteohub,2013-04-28 14:32:00,
2013-04-28 10:37:00,54.1,43.9,30.32,SE,129,7.0,11.0,68,0.00,,,0.00,742.0,meteohub,2013-04-28 14:37:00,
2013-04-28 10:42:00,54.0,44.4,30.32,South,175,7.0,14.0,70,0.00,,,0.00,754.0,meteohub,2013-04-28 14:42:00,
2013-04-28 10:47:00,54.7,45.9,30.32,NE,54,4.0,14.0,72,0.00,,,0.00,763.0,meteohub,2013-04-28 14:47:00,
2013-04-28 10:52:00,55.8,46.0,30.32,SSE,165,4.0,14.0,70,0.00,,,0.00,773.0,meteohub,2013-04-28 14:52:00,
2013-04-28 10:57:00,56.1,45.0,30.32,ESE,121,5.0,10.0,66,0.00,,,0.00,784.0,meteohub,2013-04-28 14:57:00,
2013-04-28 11:02:00,56.8,43.9,30.32,SE,145,2.0,10.0,62,0.00,,,0.00,793.0,meteohub,2013-04-28 15:02:00,
2013-04-28 11:07:00,56.8,43.2,30.32,South,173,7.0,10.0,60,0.00,,,0.00,800.0,meteohub,2013-04-28 15:07:00,
2013-04-28 11:12:00,57.4,44.4,30.32,SSE,168,6.0,10.0,62,0.00,,,0.00,807.0,meteohub,2013-04-28 15:12:00,
2013-04-28 11:17:00,57.9,45.9,30.31,South,186,6.0,9.0,64,0.00,,,0.00,810.0,meteohub,2013-04-28 15:17:00,
2013-04-28 11:22:00,58.8,46.2,30.32,ESE,103,2.0,9.0,63,0.00,,,0.00,821.0,meteohub,2013-04-28 15:22:00,
2013-04-28 11:27:00,60.1,45.7,30.32,SSE,167,6.0,9.0,59,0.00,,,0.00,831.0,meteohub,2013-04-28 15:27:00,
2013-04-28 11:32:00,58.8,45.0,30.31,SSE,151,4.0,11.0,60,0.00,,,0.00,837.0,meteohub,2013-04-28 15:32:00,
2013-04-28 11:37:00,59.4,44.6,30.31,ESE,113,4.0,11.0,58,0.00,,,0.00,844.0,meteohub,2013-04-28 15:37:00,
2013-04-28 11:42:00,60.4,43.7,30.31,SE,131,6.0,11.0,54,0.00,,,0.00,849.0,meteohub,2013-04-28 15:42:00,
2013-04-28 11:47:00,59.4,42.8,30.31,SSE,164,4.0,11.0,54,0.00,,,0.00,854.0,meteohub,2013-04-28 15:47:00,
2013-04-28 11:52:00,59.2,43.0,30.32,SSE,153,2.0,11.0,55,0.00,,,0.00,861.0,meteohub,2013-04-28 15:52:00,
2013-04-28 11:57:00,59.7,42.6,30.32,SSW,197,4.0,12.0,53,0.00,,,0.00,865.0,meteohub,2013-04-28 15:57:00,
2013-04-28 12:02:00,58.5,41.4,30.31,SSE,165,7.0,12.0,53,0.00,,,0.00,870.0,meteohub,2013-04-28 16:02:00,
2013-04-28 12:07:00,60.1,43.0,30.31,SE,144,2.0,12.0,53,0.00,,,0.00,874.0,meteohub,2013-04-28 16:07:00,
2013-04-28 12:12:00,60.1,41.9,30.31,ESE,121,4.0,12.0,51,0.00,,,0.00,879.0,meteohub,2013-04-28 16:12:00,
2013-04-28 12:17:00,60.6,41.9,30.30,South,173,5.0,11.0,50,0.00,,,0.00,882.0,meteohub,2013-04-28 16:17:00,
2013-04-28 12:22:00,60.6,41.9,30.30,East,94,8.0,11.0,50,0.00,,,0.00,886.0,meteohub,2013-04-28 16:22:00,
2013-04-28 12:27:00,59.9,41.2,30.30,South,177,8.0,13.0,50,0.00,,,0.00,889.0,meteohub,2013-04-28 16:27:00,
2013-04-28 12:32:00,60.4,41.7,30.30,SE,144,13.0,13.0,50,0.00,,,0.00,891.0,meteohub,2013-04-28 16:32:00,
2013-04-28 12:37:00,60.4,41.2,30.30,SSE,167,6.0,13.0,49,0.00,,,0.00,891.0,meteohub,2013-04-28 16:37:00,
2013-04-28 12:42:00,60.6,43.0,30.30,South,174,6.0,14.0,52,0.00,,,0.00,891.0,meteohub,2013-04-28 16:42:00,
2013-04-28 12:47:00,61.5,42.3,30.30,SE,136,2.0,14.0,49,0.00,,,0.00,900.0,meteohub,2013-04-28 16:47:00,
2013-04-28 12:52:00,61.0,40.6,30.30,SSE,161,12.0,15.0,47,0.00,,,0.00,895.0,meteohub,2013-04-28 16:52:00,
2013-04-28 12:57:00,60.4,41.2,30.30,SSE,167,6.0,15.0,49,0.00,,,0.00,896.0,meteohub,2013-04-28 16:57:00,
2013-04-28 13:02:00,61.5,40.5,30.30,SSE,156,7.0,15.0,46,0.00,,,0.00,895.0,meteohub,2013-04-28 17:02:00,
2013-04-28 13:07:00,60.8,41.0,30.30,South,176,9.0,14.0,48,0.00,,,0.00,895.0,meteohub,2013-04-28 17:07:00,
2013-04-28 13:12:00,61.5,41.2,30.30,SE,138,6.0,16.0,47,0.00,,,0.00,891.0,meteohub,2013-04-28 17:12:00,
2013-04-28 13:17:00,61.9,40.3,30.30,SSE,168,2.0,16.0,45,0.00,,,0.00,891.0,meteohub,2013-04-28 17:17:00,
2013-04-28 13:22:00,62.2,39.4,30.29,SSE,154,4.0,16.0,43,0.00,,,0.00,889.0,meteohub,2013-04-28 17:22:00,
2013-04-28 13:27:00,62.1,39.9,30.29,SE,136,11.0,13.0,44,0.00,,,0.00,888.0,meteohub,2013-04-28 17:27:00,
2013-04-28 13:32:00,61.5,40.5,30.29,SSE,148,12.0,15.0,46,0.00,,,0.00,884.0,meteohub,2013-04-28 17:32:00,
2013-04-28 13:37:00,61.2,39.7,30.29,SSE,165,8.0,15.0,45,0.00,,,0.00,882.0,meteohub,2013-04-28 17:37:00,
2013-04-28 13:42:00,61.5,39.9,30.29,South,185,3.0,15.0,45,0.00,,,0.00,877.0,meteohub,2013-04-28 17:42:00,
2013-04-28 13:47:00,62.1,40.5,30.29,SE,131,7.0,15.0,45,0.00,,,0.00,863.0,meteohub,2013-04-28 17:47:00,
2013-04-28 13:52:00,62.2,40.6,30.29,SSW,196,5.0,15.0,45,0.00,,,0.00,851.0,meteohub,2013-04-28 17:52:00,
2013-04-28 13:57:00,62.1,40.5,30.29,South,175,5.0,14.0,45,0.00,,,0.00,793.0,meteohub,2013-04-28 17:57:00,
2013-04-28 14:02:00,63.1,40.8,30.29,South,177,11.0,14.0,44,0.00,,,0.00,809.0,meteohub,2013-04-28 18:02:00,
2013-04-28 14:07:00,61.5,40.5,30.29,SE,140,4.0,14.0,46,0.00,,,0.00,831.0,meteohub,2013-04-28 18:07:00,
2013-04-28 14:12:00,62.1,41.0,30.29,ESE,113,2.0,14.0,46,0.00,,,0.00,835.0,meteohub,2013-04-28 18:12:00,
2013-04-28 14:17:00,62.4,39.6,30.28,South,173,8.0,14.0,43,0.00,,,0.00,847.0,meteohub,2013-04-28 18:17:00,
2013-04-28 14:22:00,62.2,40.6,30.28,SSE,150,9.0,14.0,45,0.00,,,0.00,828.0,meteohub,2013-04-28 18:22:00,
2013-04-28 14:27:00,61.9,40.3,30.28,SE,132,5.0,13.0,45,0.00,,,0.00,835.0,meteohub,2013-04-28 18:27:00,
2013-04-28 14:32:00,62.1,41.0,30.28,South,173,4.0,13.0,46,0.00,,,0.00,846.0,meteohub,2013-04-28 18:32:00,
2013-04-28 14:37:00,63.3,41.0,30.28,South,189,7.0,15.0,44,0.00,,,0.00,786.0,meteohub,2013-04-28 18:37:00,
2013-04-28 14:42:00,62.6,40.5,30.28,SE,138,5.0,15.0,44,0.00,,,0.00,795.0,meteohub,2013-04-28 18:42:00,
2013-04-28 14:47:00,62.1,40.5,30.28,South,188,4.0,18.0,45,0.00,,,0.00,814.0,meteohub,2013-04-28 18:47:00,
2013-04-28 14:52:00,62.4,40.8,30.27,SSE,161,6.0,18.0,45,0.00,,,0.00,817.0,meteohub,2013-04-28 18:52:00,
2013-04-28 14:57:00,62.2,41.2,30.27,SSE,161,8.0,14.0,46,0.00,,,0.00,786.0,meteohub,2013-04-28 18:57:00,
2013-04-28 15:02:00,62.1,41.5,30.27,SSW,195,8.0,15.0,47,0.00,,,0.00,795.0,meteohub,2013-04-28 19:02:00,
2013-04-28 15:07:00,61.3,40.5,30.27,SSE,164,4.0,15.0,46,0.00,,,0.00,777.0,meteohub,2013-04-28 19:07:00,
2013-04-28 15:12:00,61.0,40.1,30.26,SSE,161,8.0,17.0,46,0.00,,,0.00,761.0,meteohub,2013-04-28 19:12:00,
2013-04-28 15:17:00,61.0,40.6,30.26,South,169,7.0,17.0,47,0.00,,,0.00,772.0,meteohub,2013-04-28 19:17:00,
2013-04-28 15:22:00,61.2,40.3,30.26,SSE,157,12.0,17.0,46,0.00,,,0.00,694.0,meteohub,2013-04-28 19:22:00,
2013-04-28 15:27:00,60.6,40.3,30.26,SSE,150,4.0,18.0,47,0.00,,,0.00,650.0,meteohub,2013-04-28 19:27:00,
2013-04-28 15:32:00,60.4,41.2,30.26,South,171,9.0,18.0,49,0.00,,,0.00,568.0,meteohub,2013-04-28 19:32:00,
2013-04-28 15:37:00,61.3,42.1,30.26,SSE,161,2.0,18.0,49,0.00,,,0.00,594.0,meteohub,2013-04-28 19:37:00,
2013-04-28 15:42:00,60.6,42.4,30.26,South,172,5.0,18.0,51,0.00,,,0.00,612.0,meteohub,2013-04-28 19:42:00,
2013-04-28 15:47:00,61.7,42.3,30.26,SSE,150,10.0,14.0,49,0.00,,,0.00,617.0,meteohub,2013-04-28 19:47:00,
2013-04-28 15:52:00,60.8,40.5,30.26,SSE,157,9.0,15.0,47,0.00,,,0.00,466.0,meteohub,2013-04-28 19:52:00,
2013-04-28 15:57:00,60.8,40.5,30.25,SSE,165,10.0,15.0,47,0.00,,,0.00,561.0,meteohub,2013-04-28 19:57:00,
2013-04-28 16:02:00,60.4,41.2,30.25,South,178,2.0,15.0,49,0.00,,,0.00,475.0,meteohub,2013-04-28 20:02:00,
2013-04-28 16:07:00,60.1,40.8,30.25,South,173,6.0,12.0,49,0.00,,,0.00,510.0,meteohub,2013-04-28 20:07:00,
2013-04-28 16:13:00,59.9,40.6,30.25,South,187,13.0,14.0,49,0.00,,,0.00,522.0,meteohub,2013-04-28 20:13:00,
2013-04-28 16:18:00,60.1,40.8,30.26,SSE,154,9.0,15.0,49,0.00,,,0.00,475.0,meteohub,2013-04-28 20:18:00,
2013-04-28 16:23:00,59.5,40.3,30.26,SSE,167,5.0,15.0,49,0.00,,,0.00,390.0,meteohub,2013-04-28 20:23:00,
2013-04-28 16:28:00,59.2,39.6,30.26,SSE,163,8.0,13.0,48,0.00,,,0.00,279.0,meteohub,2013-04-28 20:28:00,
2013-04-28 16:33:00,58.8,40.3,30.26,SSE,157,8.0,15.0,50,0.00,,,0.00,404.0,meteohub,2013-04-28 20:33:00,
2013-04-28 16:38:00,58.5,39.9,30.26,SSE,148,10.0,15.0,50,0.00,,,0.00,457.0,meteohub,2013-04-28 20:38:00,
2013-04-28 16:43:00,58.8,40.8,30.26,South,179,6.0,15.0,51,0.00,,,0.00,483.0,meteohub,2013-04-28 20:43:00,
2013-04-28 16:48:00,58.6,40.1,30.26,SW,215,5.0,11.0,50,0.00,,,0.00,455.0,meteohub,2013-04-28 20:48:00,
2013-04-28 16:53:00,58.8,39.7,30.25,SSE,148,12.0,13.0,49,0.00,,,0.00,408.0,meteohub,2013-04-28 20:53:00,
2013-04-28 16:58:00,58.6,39.6,30.25,SSE,167,11.0,13.0,49,0.00,,,0.00,478.0,meteohub,2013-04-28 20:58:00,
2013-04-28 17:04:00,58.6,39.6,30.25,South,175,4.0,13.0,49,0.00,,,0.00,388.0,meteohub,2013-04-28 21:04:00,
2013-04-28 17:09:00,59.4,40.3,30.26,SSE,163,2.0,15.0,49,0.00,,,0.00,388.0,meteohub,2013-04-28 21:09:00,
2013-04-28 17:14:00,59.4,40.3,30.26,SE,128,11.0,15.0,49,0.00,,,0.00,248.0,meteohub,2013-04-28 21:14:00,
2013-04-28 17:19:00,58.5,39.9,30.25,SSE,150,2.0,15.0,50,0.00,,,0.00,271.0,meteohub,2013-04-28 21:19:00,
2013-04-28 17:24:00,58.5,40.5,30.25,SE,141,7.0,12.0,51,0.00,,,0.00,301.0,meteohub,2013-04-28 21:24:00,
2013-04-28 17:29:00,58.1,40.6,30.25,ESE,109,5.0,13.0,52,0.00,,,0.00,309.0,meteohub,2013-04-28 21:29:00,
2013-04-28 17:34:00,58.5,40.8,30.26,SSE,162,2.0,13.0,52,0.00,,,0.00,327.0,meteohub,2013-04-28 21:34:00,
2013-04-28 17:39:00,58.8,40.8,30.25,SSE,159,6.0,13.0,51,0.00,,,0.00,288.0,meteohub,2013-04-28 21:39:00,
2013-04-28 17:45:00,58.8,40.8,30.25,SE,124,4.0,8.0,51,0.00,,,0.00,206.0,meteohub,2013-04-28 21:45:00,
2013-04-28 17:50:00,58.3,40.3,30.25,SE,126,7.0,8.0,51,0.00,,,0.00,179.0,meteohub,2013-04-28 21:50:00,
2013-04-28 17:55:00,57.6,40.6,30.25,SSE,150,7.0,8.0,53,0.00,,,0.00,183.0,meteohub,2013-04-28 21:55:00,
2013-04-28 18:00:00,57.0,40.5,30.25,SSE,167,2.0,11.0,54,0.00,,,0.00,163.0,meteohub,2013-04-28 22:00:00,
2013-04-28 18:05:00,56.8,40.8,30.24,SSE,159,2.0,12.0,55,0.00,,,0.00,183.0,meteohub,2013-04-28 22:05:00,
2013-04-28 18:10:00,57.0,41.0,30.24,South,173,5.0,12.0,55,0.00,,,0.00,174.0,meteohub,2013-04-28 22:10:00,
2013-04-28 18:15:00,56.8,41.4,30.24,South,182,2.0,12.0,56,0.00,,,0.00,179.0,meteohub,2013-04-28 22:15:00,
2013-04-28 18:21:00,56.7,41.2,30.24,South,169,6.0,9.0,56,0.00,,,0.00,162.0,meteohub,2013-04-28 22:21:00,
2013-04-28 18:26:00,56.5,41.9,30.24,SSE,152,4.0,9.0,58,0.00,,,0.00,142.0,meteohub,2013-04-28 22:26:00,
2013-04-28 18:31:00,56.5,41.4,30.24,SE,138,7.0,9.0,57,0.00,,,0.00,111.0,meteohub,2013-04-28 22:31:00,
2013-04-28 18:36:00,56.1,41.9,30.24,SSE,168,4.0,9.0,59,0.00,,,0.00,88.0,meteohub,2013-04-28 22:36:00,
2013-04-28 18:41:00,55.9,42.3,30.24,ESE,121,4.0,9.0,60,0.00,,,0.00,74.0,meteohub,2013-04-28 22:41:00,
2013-04-28 18:46:00,55.8,42.1,30.24,SE,137,8.0,9.0,60,0.00,,,0.00,63.0,meteohub,2013-04-28 22:46:00,
2013-04-28 18:51:00,55.2,42.1,30.24,SSE,152,2.0,11.0,61,0.00,,,0.00,58.0,meteohub,2013-04-28 22:51:00,
2013-04-28 18:57:00,54.9,42.1,30.23,South,176,4.0,11.0,62,0.00,,,0.00,53.0,meteohub,2013-04-28 22:57:00,
2013-04-28 19:02:00,54.7,42.8,30.23,SE,146,7.0,9.0,64,0.00,,,0.00,47.0,meteohub,2013-04-28 23:02:00,
2013-04-28 19:07:00,54.3,42.1,30.23,South,184,3.0,8.0,63,0.00,,,0.00,40.0,meteohub,2013-04-28 23:07:00,
2013-04-28 19:12:00,54.1,41.4,30.23,SSE,167,5.0,8.0,62,0.00,,,0.00,33.0,meteohub,2013-04-28 23:12:00,
2013-04-28 19:17:00,54.1,41.4,30.23,SSE,167,1.0,7.0,62,0.00,,,0.00,25.0,meteohub,2013-04-28 23:17:00,
2013-04-28 19:22:00,54.1,41.0,30.23,SSE,159,4.0,6.0,61,0.00,,,0.00,19.0,meteohub,2013-04-28 23:22:00,
2013-04-28 19:27:00,54.1,41.4,30.23,SSE,166,4.0,6.0,62,0.00,,,0.00,12.0,meteohub,2013-04-28 23:27:00,
2013-04-28 19:32:00,53.8,41.5,30.23,SSE,159,4.0,6.0,63,0.00,,,0.00,9.0,meteohub,2013-04-28 23:32:00,
2013-04-28 19:37:00,53.4,41.9,30.23,SSE,168,1.0,7.0,65,0.00,,,0.00,5.0,meteohub,2013-04-28 23:37:00,
2013-04-28 19:42:00,53.2,42.3,30.23,South,171,1.0,7.0,66,0.00,,,0.00,0.0,meteohub,2013-04-28 23:42:00,
2013-04-28 19:47:00,53.1,42.4,30.23,SE,130,6.0,6.0,67,0.00,,,0.00,0.0,meteohub,2013-04-28 23:47:00,
2013-04-28 19:52:00,52.7,42.1,30.23,SE,141,6.0,8.0,67,0.00,,,0.00,0.0,meteohub,2013-04-28 23:52:00,
2013-04-28 19:57:00,52.5,42.6,30.23,South,184,2.0,8.0,69,0.00,,,0.00,0.0,meteohub,2013-04-28 23:57:00,
2013-04-28 20:02:00,52.3,42.4,30.23,South,176,4.0,8.0,69,0.00,,,0.00,0.0,meteohub,2013-04-29 00:02:00,
2013-04-28 20:07:00,52.2,42.6,30.23,SSE,160,4.0,8.0,70,0.00,,,0.00,0.0,meteohub,2013-04-29 00:07:00,
2013-04-28 20:12:00,52.2,42.6,30.23,SSE,158,1.0,8.0,70,0.00,,,0.00,0.0,meteohub,2013-04-29 00:12:00,
2013-04-28 20:17:00,52.0,42.4,30.23,SSE,166,2.0,7.0,70,0.00,,,0.00,0.0,meteohub,2013-04-29 00:17:00,
2013-04-28 20:22:00,52.0,42.4,30.23,SSE,160,5.0,6.0,70,0.00,,,0.00,0.0,meteohub,2013-04-29 00:22:00,
2013-04-28 20:27:00,51.8,42.3,30.24,South,171,2.0,7.0,70,0.00,,,0.00,0.0,meteohub,2013-04-29 00:27:00,
2013-04-28 20:32:00,52.0,42.1,30.25,SSE,158,0.0,7.0,69,0.00,,,0.00,0.0,meteohub,2013-04-29 00:32:00,
2013-04-28 20:37:00,52.0,41.7,30.25,SSE,158,2.0,7.0,68,0.00,,,0.00,0.0,meteohub,2013-04-29 00:37:00,
2013-04-28 20:42:00,52.0,41.7,30.25,South,176,1.0,4.0,68,0.00,,,0.00,0.0,meteohub,2013-04-29 00:42:00,
2013-04-28 20:47:00,52.0,41.4,30.25,SSE,156,1.0,6.0,67,0.00,,,0.00,0.0,meteohub,2013-04-29 00:47:00,
2013-04-28 20:52:00,51.8,41.5,30.25,SSE,163,4.0,6.0,68,0.00,,,0.00,0.0,meteohub,2013-04-29 00:52:00,
2013-04-28 20:57:00,51.6,41.4,30.25,SSE,157,2.0,7.0,68,0.00,,,0.00,0.0,meteohub,2013-04-29 00:57:00,
2013-04-28 21:02:00,51.4,41.5,30.25,SSE,156,0.0,7.0,69,0.00,,,0.00,0.0,meteohub,2013-04-29 01:02:00,
2013-04-28 21:07:00,51.6,42.1,30.25,SSE,151,4.0,7.0,70,0.00,,,0.00,0.0,meteohub,2013-04-29 01:07:00,
2013-04-28 21:12:00,51.4,41.9,30.25,SSE,151,0.0,5.0,70,0.00,,,0.00,0.0,meteohub,2013-04-29 01:12:00,
2013-04-28 21:17:00,51.3,42.3,30.25,SSE,152,6.0,6.0,71,0.00,,,0.00,0.0,meteohub,2013-04-29 01:17:00,
2013-04-28 21:22:00,51.1,42.8,30.25,SSE,152,0.0,6.0,73,0.00,,,0.00,0.0,meteohub,2013-04-29 01:22:00,
2013-04-28 21:27:00,51.1,43.2,30.25,SSE,152,0.0,6.0,74,0.00,,,0.00,0.0,meteohub,2013-04-29 01:27:00,
2013-04-28 21:32:00,50.9,43.3,30.25,SSE,152,0.0,6.0,75,0.00,,,0.00,0.0,meteohub,2013-04-29 01:32:00,
2013-04-28 21:37:00,50.9,43.3,30.25,SSE,152,0.0,5.0,75,0.00,,,0.00,0.0,meteohub,2013-04-29 01:37:00,
2013-04-28 21:42:00,50.7,43.5,30.25,SSE,152,0.0,4.0,76,0.00,,,0.00,0.0,meteohub,2013-04-29 01:42:00,
2013-04-28 21:47:00,50.5,43.3,30.25,SSE,152,0.0,4.0,76,0.00,,,0.00,0.0,meteohub,2013-04-29 01:47:00,
2013-04-28 21:52:00,50.7,43.7,30.25,SSE,152,0.0,4.0,77,0.00,,,0.00,0.0,meteohub,2013-04-29 01:52:00,
2013-04-28 21:57:00,50.4,43.7,30.25,SSE,152,0.0,1.0,78,0.00,,,0.00,0.0,meteohub,2013-04-29 01:57:00,
2013-04-28 22:02:00,50.5,44.2,30.25,SSE,152,0.0,0.0,79,0.00,,,0.00,0.0,meteohub,2013-04-29 02:02:00,
2013-04-28 22:07:00,50.5,44.2,30.25,SSE,152,0.0,0.0,79,0.00,,,0.00,0.0,meteohub,2013-04-29 02:07:00,
2013-04-28 22:12:00,50.5,44.6,30.25,SSE,152,0.0,0.0,80,0.00,,,0.00,0.0,meteohub,2013-04-29 02:12:00,
2013-04-28 22:17:00,50.4,44.1,30.25,SSE,152,0.0,2.0,79,0.00,,,0.00,0.0,meteohub,2013-04-29 02:17:00,
2013-04-28 22:22:00,50.2,44.2,30.25,SSE,152,0.0,2.0,80,0.00,,,0.00,0.0,meteohub,2013-04-29 02:22:00,
2013-04-28 22:27:00,50.2,44.6,30.25,SSE,152,0.0,2.0,81,0.00,,,0.00,0.0,meteohub,2013-04-29 02:27:00,
2013-04-28 22:32:00,50.2,44.6,30.25,SSE,152,0.0,2.0,81,0.00,,,0.00,0.0,meteohub,2013-04-29 02:32:00,
2013-04-28 22:37:00,50.4,44.8,30.25,SSE,152,0.0,1.0,81,0.00,,,0.00,0.0,meteohub,2013-04-29 02:37:00,
2013-04-28 22:42:00,50.2,44.6,30.25,SSE,152,0.0,2.0,81,0.00,,,0.00,0.0,meteohub,2013-04-29 02:42:00,
2013-04-28 22:47:00,50.2,45.0,30.25,SSE,152,0.0,2.0,82,0.00,,,0.00,0.0,meteohub,2013-04-29 02:47:00,
2013-04-28 22:52:00,50.2,45.0,30.25,SSE,152,0.0,2.0,82,0.00,,,0.00,0.0,meteohub,2013-04-29 02:52:00,
2013-04-28 22:57:00,50.0,45.0,30.25,SSE,152,0.0,1.0,83,0.00,,,0.00,0.0,meteohub,2013-04-29 02:57:00,
2013-04-28 23:02:00,49.8,44.8,30.26,SSE,152,0.0,1.0,83,0.00,,,0.00,0.0,meteohub,2013-04-29 03:02:00,
2013-04-28 23:07:00,49.6,45.0,30.26,SSE,152,0.0,1.0,84,0.00,,,0.00,0.0,meteohub,2013-04-29 03:07:00,
2013-04-28 23:12:00,49.6,45.3,30.26,SSE,152,0.0,1.0,85,0.00,,,0.00,0.0,meteohub,2013-04-29 03:12:00,
2013-04-28 23:17:00,49.6,45.3,30.26,SSE,152,0.0,0.0,85,0.00,,,0.00,0.0,meteohub,2013-04-29 03:17:00,
2013-04-28 23:22:00,49.6,45.3,30.26,SSE,152,0.0,0.0,85,0.00,,,0.00,0.0,meteohub,2013-04-29 03:22:00,
2013-04-28 23:27:00,49.6,45.3,30.26,SSE,152,0.0,0.0,85,0.00,,,0.00,0.0,meteohub,2013-04-29 03:27:00,
2013-04-28 23:32:00,49.8,45.5,30.26,SSE,152,0.0,0.0,85,0.00,,,0.00,0.0,meteohub,2013-04-29 03:32:00,
2013-04-28 23:37:00,49.8,45.1,30.26,SSE,152,0.0,0.0,84,0.00,,,0.00,0.0,meteohub,2013-04-29 03:37:00,
2013-04-28 23:42:00,50.0,45.3,30.26,SSE,152,0.0,0.0,84,0.00,,,0.00,0.0,meteohub,2013-04-29 03:42:00,
2013-04-28 23:47:00,50.0,45.3,30.26,SSE,152,0.0,0.0,84,0.00,,,0.00,0.0,meteohub,2013-04-29 03:47:00,
2013-04-28 23:52:00,49.6,45.0,30.26,SSE,152,0.0,0.0,84,0.00,,,0.00,0.0,meteohub,2013-04-29 03:52:00,
2013-04-28 23:57:00,49.5,45.1,30.26,SSE,152,0.0,0.0,85,0.00,,,0.00,0.0,meteohub,2013-04-29 03:57:00,